SB KEPS @ AMSAT $ORB13059.N 2Line Orbital Elements 13059.AMSAT
HR AMSAT ORBITAL ELEMENTS FOR AMATEUR SATELLITES IN NASA FORMAT Send SUBSCRIBE KEPS/UNSUBSCRIBE KEPS to [email protected] only BID: ORB13059.N
DECODE 2-LINE ELSETS WITH THE FOLLOWING KEY: 1 AAAAAU 00 0 0 BBBBB.BBBBBBBB .CCCCCCCC 00000-0 00000-0 0 DDDZ 2 AAAAA EEE.EEEE FFF.FFFF GGGGGGG HHH.HHHH III.IIII JJ.JJJJJJJJKKKKKZ KEY: A-CATALOGNUM B-EPOCHTIME C-DECAY D-ELSETNUM E-INCLINATION F-RAAN G-ECCENTRICITY H-ARGPERIGEE I-MNANOM J-MNMOTION K-ORBITNUM Z-CHECKSUM
TO ALL RADIO AMATEURS BT
AO-07 1 07530U 74089B 13059.89292272 -.00000006 00000-0 23105-3 0 6192 2 07530 101.4247 053.3618 0012213 138.7713 283.2960 12.53594392752211 FO-29 1 24278U 96046B 13059.88725693 -.00000025 00000-0 73592-5 0 602 2 24278 098.5685 132.8769 0351469 084.7962 026.0938 13.52996627816661 SO-33 1 25509U 98061B 13058.85617043 .00000323 00000-0 50161-4 0 4424 2 25509 031.4339 326.5917 0351848 280.8018 156.5655 14.28963126749246 RS-22 1 27939U 03042A 13059.54004247 .00000266 00000-0 58805-4 0 2013 2 27939 097.7981 253.0584 0013385 167.8937 192.2595 14.64331229503399 VO-52 1 28650U 05017B 13059.82469071 .00000852 00000-0 10897-3 0 3569 2 28650 097.5767 083.9716 0024503 276.8552 189.3530 14.83592428423012 HO-68 1 36122U 09072B 13059.81588343 -.00000044 00000-0 00000 0 0 3251 2 36122 100.3222 119.5486 0007196 241.6052 118.4336 13.16302170154159 UO-11 1 14781U 84021B 13059.72441933 .00000341 00000-0 51098-4 0 1130 2 14781 097.9162 122.5265 0007496 280.0010 080.0357 14.80763801557881 AO-16 1 20439U 90005D 13059.85756576 .00000109 00000-0 56180-4 0 6866 2 20439 098.4619 002.4554 0012074 117.6521 276.0658 14.32141696206733 LO-19 1 20442U 90005G 13059.00930448 .00000117 00000-0 58906-4 0 6181 2 20442 098.4302 003.7662 0013130 111.7941 310.2154 14.32354663206805 AO-27 1 22825U 93061C 13059.85831663 .00000089 00000-0 51995-4 0 3248 2 22825 098.6080 005.0909 0007476 241.4785 184.0335 14.29536011 13156 IO-26 1 22826U 93061D 13059.03831388 .00000118 00000-0 62797-4 0 818 2 22826 098.6019 004.5907 0008058 237.2559 181.2487 14.29816895 13169 GO-32 1 25397U 98043D 13059.86622731 .00000065 00000-0 46804-4 0 104 2 25397 098.4020 032.4124 0000583 185.0232 260.8310 14.23323669760534 NO-44 1 26931U 01043C 13058.87065880 .00000076 00000-0 61763-4 0 2700 2 26931 067.0524 181.3040 0005771 285.1394 220.6216 14.29890586595792 SO-50 1 27607U 02058C 13059.88843841 .00000667 00000-0 12276-3 0 46 2 27607 064.5558 233.7958 0058977 194.5664 237.6932 14.72775043547766 CO-55 1 27844U 03031E 13059.07202794 .00000165 00000-0 96006-4 0 5905 2 27844 098.7037 069.7273 0009625 197.7340 194.8515 14.21163684501238 CO-57 1 27848U 03031J 13058.51067025 .00000121 00000-0 75943-4 0 5362 2 27848 098.7120 068.6295 0009404 205.0707 301.8948 14.20896380501080 AO-51 1 28375U 04025K 13059.86513344 .00000199 00000-0 72370-4 0 4973 2 28375 098.1886 019.7511 0082918 344.6836 067.4863 14.41072419455734 CP3 1 31129U 07012N 13059.21818464 .00000749 00000-0 17805-3 0 4021 2 31129 097.8937 058.0539 0101279 047.3002 008.7401 14.53472823311168 CO-65 1 32785U 08021C 13059.18807251 .00000832 00000-0 10719-3 0 5648 2 32785 097.7654 119.7787 0012992 306.4588 086.8686 14.83603937261715 PRISM 1 33493U 09002B 13059.84853605 .00001757 00000-0 21061-3 0 5786 2 33493 098.2015 213.3485 0018307 181.8029 178.3110 14.85320982221832 SOHLA-1 1 33496U 09002E 13059.87001589 .00000250 00000-0 49833-4 0 9811 2 33496 098.1221 176.2613 0005301 310.5234 195.9410 14.70194634219957 SO-67 1 35870U 09049F 13059.86773148 .00002701 00000-0 10775-3 0 8359 2 35870 097.2040 092.5064 0002377 028.5371 329.2845 15.26005536191724 TISAT-1 1 36799U 10035E 13059.83367164 .00001063 00000-0 13770-3 0 8494 2 36799 098.0402 143.9002 0015646 062.5198 297.7567 14.82886764142511 STUDSAT 1 36801U 10035G 13058.83386531 .00003498 00000-0 39644-3 0 5934 2 36801 098.0478 145.1221 0012356 051.2797 088.5402 14.86999855142479 FO-69 1 37227U 0 13058.47095845 .00000509 00000-0 79251-4 0 00791 2 37227 071.9702 108.5053 0016475 214.8087 145.2122 14.77380366012706 FO-70 1 37380U 0 13057.30123492 -.00000046 00000-0 14930-5 0 00760 2 37380 071.9749 111.9690 0018455 208.9506 151.0634 14.77121324012601 ALMASAT-1 1 38078U 12006B 13059.58130904 .00016399 00000-0 41473-3 0 466 2 38078 069.4835 091.9767 0720257 285.3278 066.9391 14.19426766 53806 XATCOBEO 1 38082U 12006F 13059.51287389 .00045668 34311-5 95735-3 0 9595 2 38082 069.4832 077.5147 0636581 277.4015 075.5313 14.41243739 54192 NOAA-10 1 16969U 86073A 13059.12936477 .00000029 00000-0 29470-4 0 2600 2 16969 098.5569 089.2884 0012221 199.8579 196.4756 14.27616597376383 NOAA-11 1 19531U 88089A 13059.48826572 -.00000054 00000-0 -57098-5 0 2619 2 19531 098.7146 145.0673 0011064 206.6164 223.3692 14.15003460260750 NOAA-12 1 21263U 91032A 13059.55067823 .00000007 00000-0 21609-4 0 7372 2 21263 098.7073 085.7481 0014259 171.9248 350.0728 14.25548535133077 MET-3/5 1 21655U 91056A 13059.84424678 -.00000063 00000-0 -19687-3 0 6319 2 21655 082.5593 330.8509 0013948 045.0765 315.1487 13.17045647 35671 MET-2/21 1 22782U 93055A 13059.89038811 .00000108 00000-0 84137-4 0 6767 2 22782 082.5517 188.8320 0023519 151.0932 355.8892 13.83700585984665 OKEAN-4 1 23317U 94066A 13059.87707192 .00000664 00000-0 76187-4 0 1520 2 23317 082.5414 151.1476 0020748 220.1200 257.0995 14.84267272992870 NOAA-14 1 23455U 94089A 13059.45585495 .00000035 00000-0 41506-4 0 2195 2 23455 098.8063 145.5274 0008475 309.9571 157.6282 14.13894209937002 NOAA-15 1 25338U 98030A 13059.55750870 .00000142 00000-0 79336-4 0 6385 2 25338 098.7179 050.3972 0011794 085.6348 062.3181 14.25181156769362 RESURS 1 25394U 98043A 13059.89040455 .00000020 00000-0 26349-4 0 3174 2 25394 098.3510 040.9855 0001531 160.4895 232.2067 14.24321130760944 FENGYUN1 1 25730U 99025A 13058.92293060 .00001998 00000-0 11496-2 0 8168 2 25730 098.8698 019.8487 0023894 357.3959 035.5314 14.10218222710643 OKEAN-0 1 25860U 99039A 13059.87728801 .00000402 00000-0 68055-4 0 8803 2 25860 097.9772 023.8707 0002066 115.7081 297.1004 14.74487405732399 NOAA-16 1 26536U 00055A 13059.49982907 .00000149 00000-0 10472-3 0 1160 2 26536 099.0574 111.1187 0011455 084.8262 018.9369 14.12842653641221 NOAA-17 1 27453U 02032A 13059.50201094 .00000103 00000-0 61929-4 0 397 2 27453 098.3188 079.3215 0012864 123.2185 039.8025 14.24542798555244 NOAA-18 1 28654U 05018A 13059.51702075 .00000160 00000-0 11268-3 0 5235 2 28654 099.0872 026.2477 0014918 151.0277 342.1377 14.11776446400727 NOAA-19 1 33591U 09005A 13059.51231832 .00000078 00000-0 67261-4 0 7100 2 33591 098.8944 002.4902 0014397 021.4419 114.9974 14.11464429209166 HUBBLE 1 20580U 90037B 13059.01398395 .00001420 00000-0 89847-4 0 1854 2 20580 028.4694 268.3463 0003113 269.0590 245.5148 15.03313302 53256 ISS 1 25544U 98067A 13059.94731481 .00007220 00000-0 12308-3 0 3144 2 25544 051.6474 285.8987 0011236 324.2454 223.5245 15.52469488817891 CO-58 1 28895U 05043F 13058.64894479 .00000388 00000-0 87922-4 0 4156 2 28895 097.8845 279.2429 0018820 069.6529 323.3348 14.60974499390951 FALCON 1 30776U 07006E 13059.66884709 .00003236 00000-0 19952-3 0 5609 2 30776 035.4305 147.7401 0001187 119.8457 035.6185 15.09642205329007 MAST 1 31126U 07012K 13059.18098563 .00000528 00000-0 12707-3 0 6948 2 31126 097.8787 061.3543 0093911 033.5245 039.2354 14.54442662311478 CAPE1 1 31130U 07012P 13059.21367075 .00000703 00000-0 16819-3 0 7061 2 31130 097.8940 057.7060 0101755 048.1417 008.3235 14.53313148310958 COMPASS 1 32787U 08021E 13059.89640883 .00001454 00000-0 17638-3 0 5563 2 32787 097.7657 121.2351 0013365 300.6478 175.5075 14.85020045261896 AAUSAT2 1 32788U 08021F 13059.18070641 .00001454 00000-0 17465-3 0 5462 2 32788 097.7667 121.0825 0012975 302.8531 090.7123 14.85437123261826 DO-64 1 32789U 08021G 13059.86450816 .00002572 00000-0 28815-3 0 5704 2 32789 097.7806 124.9228 0012613 293.5065 178.4883 14.87667100262019 CO-66 1 32791U 08021J 13059.18468880 .00001080 00000-0 13504-3 0 5423 2 32791 097.7662 120.0367 0013890 304.1483 121.1337 14.84249932261704 RS-30 1 32953U 08025A 13059.72437483 .00000010 00000-0 00000 0 0 6350 2 32953 082.5037 135.6414 0020174 109.2243 251.1021 12.43031551216431 METEOR-M 1 35865U 09049A 13059.71678726 -.00000021 00000-0 10130-4 0 2470 2 35865 098.6174 114.7333 0003173 041.3895 318.7518 14.21880365179053 RS-38 1 35869U 09049E 13059.69793808 .00000004 00000-0 21171-4 0 2219 2 35869 098.6121 114.6588 0005282 036.0942 324.0590 14.22114123179072 JUGNU 1 37839U 11058B 13059.84747050 .00000386 00000-0 64551-4 0 3411 2 37839 019.9608 243.2197 0018876 170.0129 320.5916 14.12126927 71563 SRMSAT 1 37841U 11058D 13058.90990266 .00000362 00000-0 54612-4 0 3421 2 37841 019.9713 258.7972 0011841 116.5761 024.7044 14.10202243 71331 RAX-2 1 37853U 11061D 13059.90145692 .00002234 00000-0 17954-3 0 4387 2 37853 101.7141 223.4657 0239033 337.5573 163.8450 14.82403228 72397 AUBIESAT 1 37854U 11061E 13059.90649442 .00002549 00000-0 19948-3 0 4373 2 37854 101.7177 224.1270 0239286 336.4284 164.0281 14.83008323 72408 HRBE 1 37855U 11061F 13059.60416759 .00002280 00000-0 18042-3 0 4325 2 37855 101.7177 223.5202 0240095 337.6195 086.6499 14.82733890 72358 RS-39 1 38051U 11062C 13059.83082524 .00007565 00000-0 27266-3 0 2146 2 38051 051.6380 012.2836 0011261 229.9336 149.5850 15.29479491 61188 E-STAR 1 38079U 12006C 13060.06010160 .00033107 32467-5 71602-3 0 9327 2 38079 069.4909 079.7122 0663005 278.7460 073.8965 14.35152389 54174 GOLIAT 1 38085U 12006J 13059.50955505 .00028148 31947-5 62157-3 0 8642 2 38085 069.4852 082.4386 0669280 280.1084 072.5230 14.33497066 54051 HORYU-2 1 38340U 12025D 13059.11771371 .00000664 00000-0 11750-3 0 3913 2 38340 098.2048 005.9202 0011724 236.9784 123.0296 14.70637035 42086 RS-40 1 38736U 12041D 13058.84895523 .00000010 00000-0 00000 0 0 1987 2 38736 082.4748 223.2992 0020426 198.2010 161.8343 12.43229714 26667 PROITERES 1 38756U 12047B 13059.78480678 .00000324 00000-0 57170-4 0 5527 2 38756 098.2629 134.8069 0013801 092.1898 268.0887 14.74086510 25426 RAIKO 1 38852U 98067CN 13058.88339686 .00035934 00000-0 40744-3 0 1543 2 38852 051.6415 285.9266 0012944 308.8639 051.1199 15.61924032 22705 FITSAT 1 1 38853U 98067CP 13059.86980832 .00056434 00000-0 57785-3 0 1538 2 38853 051.6433 279.7818 0009523 323.7260 036.3088 15.64375305 22927 TechEdSat 1 38854U 98067CQ 13058.86416700 .00089278 00000-0 70112-3 0 1739 2 38854 051.6393 282.0319 0007356 311.3824 048.6540 15.70738815 22809 F 1 1 38855U 98067CR 13059.84705248 .00098771 00000-0 79562-3 0 1766 2 38855 051.6388 277.3400 0007664 316.9335 043.1062 15.70083796 22846 WeWish 1 38856U 98067CS 13059.84833513 .00496549 11161-3 12083-2 0 2127 2 38856 051.6332 269.7274 0009274 275.8671 084.1298 15.95596590 22951 /EX
participants (1)
-
Ray Hoad